Regional Weather Roundup
Issued by NWS

Current Version | Previous Version | Graphics & Text | Print | Product List | Glossary On
Versions: 1 2 3 4 5 6 7 8 9 10 11 12 13 14 15 16 17 18 19 20 21 22 23 24 25 26 27 28 29 30 31 32 33 34 35 36 37 38 39 40 41 42 43 44 45 46 47 48 49 50
000
ASUS42 KFFC 270310
RWRGA
WEATHER ROUNDUP FOR GEORGIA
NATIONAL WEATHER SERVICE PEACHTREE CITY GA
1100 PM EDT MON OCT 26 2020

NOTE: "FAIR" INDICATES FEW OR NO CLOUDS BELOW 12,000 FEET WITH NO
SIGNIFICANT WEATHER AND/OR OBSTRUCTIONS TO VISIBILITY.

* = USE WITH CAUTION. THE STATIONS MARKED WITH AN ASTERISK MAY NOT
REPORT WEATHER SUCH AS PRECIPITATION, FOG, OR THUNDER AND ARE NOT
QUALITY CONTROLLED BY NWS.

THE REMARK "TC" DENOTES TEMPERATURE READING IN DEGREES CELSIUS.

GAZ001>058-270400-
NORTH GEORGIA

CITY           SKY/WX    TMP DP  RH WIND       PRES   REMARKS
ATLANTA        CLOUDY    66  63  90 E8        30.16R
ATHENS         CLOUDY    64  62  93 CALM      30.16R
CHAMBLEE       CLOUDY    64  63  96 CALM      30.16R
PEACHTREE CITY CLOUDY    66  64  93 E5        30.16R
ROME           CLOUDY    67  63  87 E3        30.14R
WEST ATLANTA   CLOUDY    66  63  90 E5        30.16R
GAINESVILLE    CLOUDY    63  61  93 CALM      30.18R
CARTERSVILLE   CLOUDY    67  63  87 CALM      30.16R


CITY           SKY/WX    TMP DP  RH WIND       PRES   REMARKS
DALTON*        MOCLDY    68  63  83 CALM      30.16R
LAWRENCEVILLE* CLOUDY    64  64 100 CALM      30.17R
MARIETTA       CLOUDY    65  62  91 E8        30.16R
KENNESAW*      CLOUDY    66  63  90 E7        30.16R
CANTON*        CLOUDY    64  64 100 CALM      30.18R
BLAIRSVILLE*   CLOUDY    59  57  92 CALM      30.19R
$$

GAZ059>098-102>109-270400-
CENTRAL GEORGIA

CITY           SKY/WX    TMP DP  RH WIND       PRES   REMARKS
AUGUSTA-BUSH   CLOUDY    65  63  93 CALM      30.15R
AUGUSTA-DANIEL CLOUDY    67  63  87 NW3       30.16R
COLUMBUS       CLOUDY    70  65  84 E9        30.11R
MACON          CLOUDY    68  65  90 E6        30.15R
ROBINS AFB     CLOUDY    68  67  97 E5        30.14R


CITY           SKY/WX    TMP DP  RH WIND       PRES   REMARKS
LAGRANGE*      MOCLDY    66  65  96 CALM      30.14R
SYLVANIA*      CLOUDY    68  65  88 SE5       30.16S
MILLEDGEVILLE* CLOUDY    70  66  88 CALM      30.16
$$

GAZ099>101-110>166-270400-
SOUTH GEORGIA

CITY           SKY/WX    TMP DP  RH WIND       PRES   REMARKS
SAVANNAH       CLOUDY    70  65  84 E7        30.15R
VALDOSTA       CLEAR     74  68  81 E8        30.10R
ALMA           CLOUDY    71  66  84 VRB5      30.13R
ST SIMONS      MOCLDY    73  70  90 NE8       30.12R
FT STEWART     CLOUDY    69  65  88 E6        30.13R
ALBANY         CLOUDY    75  69  81 E6        30.10R
HUNTER AFB     CLOUDY    69  65  85 E5        30.13R
MOODY AFB      CLEAR     73  69  89 E8        30.10R
BRUNSWICK      MOCLDY    71  67  88 NE8       30.12F


CITY           SKY/WX    TMP DP  RH WIND       PRES   REMARKS
BAINBRIDGE*    CLOUDY    74  70  88 E7        30.07R
MOULTRIE*      PTCLDY    73  68  83 CALM      30.10R
VIDALIA*       CLOUDY    70  63  78 E5        30.15R
WAYCROSS*      CLOUDY    72  67  84 E8        30.13R
DOUGLAS*       CLOUDY    73  68  84 E8        30.14R
$$



USA.gov is the U.S. government's official web portal to all federal, state and local government web resources and services.